User: anonymous   Login
Location: Unspecified
(0.0000°N, 0.0000°E)
Time: 07:53:49
(UTC+02:00)
Language:

CZ-4 R/B - Orbit

View from above orbital plane
View from above orbital plane
View from above satellite
View from above satellite

Ground track
Ground track

The orbit data is extracted from the following two-line orbital elements,

1 28059U 03049C   15147.57746383  .00000067  00000-0  28513-4 0  9997
2 28059 098.6646 002.9257 0050684 017.7035 034.6486 14.52349482614572
Epoch (UTC): 27 May 2015 13:51:32
Eccentricity: 0.0050684
inclination: 98.6646°
perigee height: 682 km
apogee height: 754 km
right ascension of ascending node: 2.9257°
argument of perigee: 17.7035°
revolutions per day: 14.52349482
mean anomaly at epoch: 34.6486°
orbit number at epoch: 61457

The dashed part of the orbit path shows where the satellite is in the earth's shadow,  

DLR